#timestamp,LO_Frequency,Hit,StdDev 
1697619615.3,286046589.4,N
1697619635.2,286046585.7,N
1697619655.9,286046826.2,N
1697619675.7,286046584.8,N
1697619695.6,286046583.7,N
1697619715.4,286046584.6,N
1697619735.2,286046978.8,N
1697619755.1,286046893.6,N
1697619756.0,286046893.6,N
1697619775.8,286046586.1,N
1697619795.7,286046971.7,N
1697619815.5,286046967.7,N
1697619835.3,286047148.1,N
1697619855.2,286047485.7,N
1697619875.0,286046868.8,N
1697619875.9,286046868.8,N
1697619895.7,286047581.4,N
1697619915.6,286047875.8,Y
1697619935.4,286048002.9,P
1697619955.3,286046505.1,N
1697619975.1,286048107.2,N
1697619976.0,286048107.2,N
1697619995.8,286048114.6,N
1697620015.7,286048114.0,N
1697620035.5,286048530.3,N
1697620055.3,286048554.8,N
1697620075.2,286049567.4,Y
1697620095.0,286046957.2,P
1697620095.9,286046957.2,N
1697620115.8,286047764.8,N
1697620135.6,286048294.7,N
1697620155.4,286048292.5,N
1697620175.3,286048295.3,N
1697620195.1,286048295.6,N
1697620215.8,286048085.9,N
1697620235.7,286048085.4,N
1697620255.5,286048086.2,N
1697620275.4,286048088.4,N
1697620295.2,286048089.1,N
1697620315.0,286048088.0,N
1697620315.9,286048088.0,N
1697620335.8,286048088.1,N
1697620355.6,286048092.3,N
1697620375.4,286048093.6,N
1697620395.3,286048092.2,N
1697620415.1,286048093.9,N
1697620435.9,286048095.4,N
1697620455.7,286048096.9,Y
1697620475.5,286047099.0,P
1697620495.4,286047744.8,N
1697620515.2,286047646.2,N
1697620535.0,286047891.9,N
1697620536.0,286047891.9,N
1697620555.8,286047703.8,N
1697620575.6,286048223.3,Y
1697620595.5,286045371.4,P
1697620615.3,286045051.6,N
1697620635.1,286046402.4,N
1697620655.9,286045411.4,N
1697620675.7,286045062.3,N
1697620695.6,286044855.6,N
1697620715.4,286044821.6,N
1697620735.2,286044785.5,N
1697620755.1,286044747.3,N
1697620756.0,286044747.3,N
1697620775.8,286044638.3,N
1697620795.6,286044743.7,N
1697620815.5,286044740.8,N
1697620835.3,286046403.9,N
1697620855.2,286044735.9,N
1697620875.9,286044735.3,N
1697620895.7,286044727.6,N
1697620915.6,286046405.8,N
1697620935.4,286044196.3,Y
1697620955.2,286047221.5,P
1697620975.1,286048048.5,N
1697620976.0,286048048.5,N
1697620995.8,286048617.9,N
1697621015.7,286048581.8,N
1697621035.5,286048143.4,N
1697621055.3,286048142.3,N
1697621075.2,286048144.0,N
1697621095.0,286048144.1,N
1697621095.9,286048144.1,N
1697621115.7,286048148.3,N
1697621135.6,286048147.9,N
1697621155.4,286048147.7,N
1697621175.3,286048143.3,N
1697621195.1,286048149.1,N
1697621196.0,286048149.1,N
1697621215.8,286048152.8,N
1697621235.7,286048154.3,N
1697621255.5,286048154.8,N
1697621275.3,286048151.0,N
1697621295.2,286048154.3,N
1697621315.0,286048154.6,N
1697621315.9,286048154.6,N
1697621335.8,286048153.8,N
1697621355.6,286048156.8,N
1697621375.4,286048157.4,N
1697621395.3,286048157.8,N
1697621415.1,286048156.4,N
1697621435.8,286048158.2,N
1697621455.7,286048595.8,N
1697621475.5,286049034.3,Y
1697621495.4,286047399.6,P
1697621515.2,286044762.0,P
1697621535.0,286045325.8,N
1697621535.9,286045325.8,N
1697621555.8,286046528.2,N
1697621575.6,286044764.0,N
1697621595.4,286046535.2,N
1697621615.3,286044764.2,N
1697621635.1,286046537.0,N
1697621655.9,286046540.2,N
1697621675.7,286046543.1,N
1697621695.5,286044994.9,N
1697621715.4,286044767.3,N
1697621735.2,286046547.0,N
1697621755.0,286046548.1,N
1697621755.9,286046548.1,N
1697621775.8,286045213.5,N
1697621795.6,286045754.1,N
1697621815.5,286045611.1,N
1697621835.3,286045757.3,N
1697621855.1,286045912.3,N
1697621875.9,286046047.3,N
1697621895.7,286045828.4,N
1697621915.5,286045520.0,N
1697621935.4,286045669.3,N
1697621955.2,286045205.3,N
1697621975.1,286045421.8,N
1697621976.0,286045421.8,N
1697621995.8,286045207.2,N
1697622015.6,286045824.8,N
1697622035.5,286045931.1,N
1697622055.3,286045823.9,N
1697622075.1,286045931.9,N
1697622095.9,286045205.7,Y
1697622115.7,286046778.5,P
1697622135.6,286046055.3,N
1697622155.4,286046436.6,N
1697622175.2,286046437.8,N
1697622195.1,286046439.6,N
1697622196.0,286046439.6,N
1697622215.8,286046051.3,Y
1697622235.7,286047098.9,P
1697622255.5,286047354.7,N
1697622275.3,286047098.1,N
1697622295.2,286047100.1,N
1697622315.9,286047097.1,N
1697622335.7,286047045.2,N
1697622355.6,286047093.8,N
1697622375.4,286047092.3,N
1697622395.2,286047212.4,N
1697622415.1,286047091.2,N
1697622416.0,286047091.2,N
1697622435.8,286047095.6,N
1697622455.7,286047359.8,N
1697622475.5,286047105.6,N
1697622495.3,286047089.9,N
1697622515.2,286047709.0,Y
1697622535.0,286046966.7,P
1697622535.9,286046966.7,N
1697622555.8,286047007.0,N
1697622575.6,286046966.1,N
1697622595.4,286047004.7,N
1697622615.3,286047004.6,N
1697622635.1,286047007.2,N
1697622655.8,286047007.3,N
1697622675.7,286047006.1,N
1697622695.5,286046969.8,N
1697622715.4,286046972.1,N
1697622735.2,286047007.2,N
1697622755.0,286047004.9,N
1697622755.9,286047004.9,N
1697622775.8,286047005.9,N
1697622795.6,286047183.1,Y
1697622815.5,286046971.3,P
1697622835.3,286047001.3,N
1697622855.1,286046973.8,N
1697622875.9,286046944.1,Y
1697622895.7,286046979.3,P
1697622915.5,286047669.3,P
1697622935.4,286047015.0,N
1697622955.2,286047014.8,N
1697622975.1,286047015.5,N
1697622976.0,286047015.5,N
1697622995.8,286046950.1,N
1697623015.6,286046982.6,N
1697623035.5,286047013.8,N
1697623055.3,286046984.7,N
1697623075.1,286047012.9,N
1697623095.9,286046983.7,N
1697623115.7,286046747.5,N
1697623135.6,286047014.9,N
1697623155.4,286046649.3,N
1697623175.2,286046962.4,N
1697623195.1,286046744.8,N
1697623196.0,286046744.8,N
